sat.trackr.live / text

‹ back to catalog

STARLINK-35421

NORAD 66062 · 2025-235E

PAYLOAD ACTIVE UNKNOWN

§ Identity

Operator
Country
US
Launch date
2025-10-19
Launch site
AFETR
Launch vehicle
Mass (kg)
RCS (m²)

Purposes: comms

External: N2YO · Heavens-Above · Gunter

§ Orbital elements

Epoch: 2026-05-25T00:07:35.683104Z

Period
94.11 min
Inclination
53.1585°
Eccentricity
0.0001707
Mean motion
15.30197004 rev/d
Perigee alt
474.1 km
Apogee alt
476.4 km
Semi-major
6,853.4 km
B*
-4.1192e-5
RAAN
250.9419°
Arg perigee
87.5804°
Mean anomaly
272.5392°
Rev number
3,460

§ Raw data

STARLINK-354211 66062U 25235E   26145.00527411 -.00001579  00000+0 -41192-4 0  99992 66062  53.1585 250.9419 0001707  87.5804 272.5392 15.30197004 34609

JSON: /api/v1/satellites/66062 · /tle

For live sub-satellite position, see the globe view (requires WebGL).

§ Visibility from observer

Set your observer location to see the next 7 days of passes ≥ 10°. The values pass through the URL so the page stays shareable.

No JS? Fill the form by hand. The geolocation button needs JavaScript.